Regional Weather Roundup
Issued by NWS

Home | Current Version | Previous Version | Text Only | Print | Product List | Glossary On
Versions: 1 2 3 4 5 6 7 8 9 10 11 12 13 14 15 16 17 18 19 20 21 22 23 24 25 26 27 28 29 30 31 32 33 34 35 36 37 38 39 40 41 42 43 44 45 46 47 48 49 50
000
ASUS46 KPQR 021810
RWROR

OREGON REGIONAL WEATHER ROUNDUP
NATIONAL WEATHER SERVICE PORTLAND OR
1100 AM PDT WED SEP 02 2015

NOTE: "FAIR" INDICATES FEW OR NO CLOUDS BELOW 12,000 FEET WITH
NO SIGNIFICANT WEATHER AND/OR OBSTRUCTIONS TO VISIBILITY.

ORZ001>013-021900-
NORTHWEST OREGON


CITY           SKY/WX    TMP DP  RH WIND       PRES   REMARKS
ASTORIA        MOSUNNY   63  55  75 SW8       29.93R
6HR MIN TEMP:  55; 6HR MAX TEMP:  63; 6HR PCP:  0.24;

NEWPORT        PTSUNNY   61  50  67 CALM      29.99S
PORTLAND       PTSUNNY   61  57  87 W3        29.94R
6HR MIN TEMP:  58; 6HR MAX TEMP:  62; 6HR PCP:  0.04;

VANCOUVER WA   PTSUNNY   61  55  81 W3        29.94
6HR MIN TEMP:  58; 6HR MAX TEMP:  62; 6HR PCP:  0.06;

SCAPPOOSE      CLOUDY    62  56  80 VRB3      29.93S
6HR MIN TEMP:  55; 6HR MAX TEMP:  62; 6HR PCP:  0.01;

HILLSBORO      CLOUDY    62  55  77 CALM      29.93S
6HR MIN TEMP:  54; 6HR MAX TEMP:  63; 6HR PCP:  0.01;

AURORA         SUNNY     65  50  58 VRB5      29.95S
6HR MIN TEMP:  58; 6HR MAX TEMP:  66; 6HR PCP: TRACE;

MCMINNVILLE    CLOUDY    65  52  62 S5        29.95R
6HR MIN TEMP:  56; 6HR MAX TEMP:  65; 6HR PCP: TRACE;

SALEM          PTSUNNY   67  48  50 NW3       29.94S
6HR MIN TEMP:  58; 6HR MAX TEMP:  67;

CORVALLIS      CLOUDY    63  50  63 NW3       29.97R
EUGENE         PTSUNNY   66  51  58 SW7       29.96S
6HR MIN TEMP:  57; 6HR MAX TEMP:  67;

$$

ORZ021-028-021900-
SOUTHWEST OREGON


CITY           SKY/WX    TMP DP  RH WIND       PRES   REMARKS
NORTH BEND     CLOUDY    66  57  72 W3        29.99R
BROOKINGS      CLOUDY    64  63  97 SW3       29.99S
ROSEBURG       MOSUNNY   67  53  61 VRB3      29.97S
6HR MIN TEMP:  58; 6HR MAX TEMP:  67; 6HR PCP:  0.03;

SEXTON SUMMIT    N/A    N/A N/A N/A MISG      30.00S
MEDFORD        CLOUDY    67  50  54 NW9       29.96S
6HR MIN TEMP:  58; 6HR MAX TEMP:  67;

$$

ORZ014>016-041-021900-
COLUMBIA GORGE


CITY           SKY/WX    TMP DP  RH WIND       PRES   REMARKS
TROUTDALE      CLOUDY    64  56  75 W8G17     29.94R
6HR MIN TEMP:  59; 6HR MAX TEMP:  65; 6HR PCP:  0.02;

THE DALLES     MOSUNNY   68  49  50 NW17      29.89F
6HR MIN TEMP:  58; 6HR MAX TEMP:  68; 6HR PCP: TRACE;

$$

ORZ029>031-041-044-049-050-061>064-502-503-505>511-021900-
EASTERN OREGON


CITY           SKY/WX    TMP DP  RH WIND       PRES   REMARKS
REDMOND        CLOUDY    60  42  51 NW9       29.94R
6HR MIN TEMP:  52; 6HR MAX TEMP:  60;

BEND           PTSUNNY   55  43  62 N7        29.95S
PRINEVILLE     CLOUDY    57  43  58 VRB6      29.95S
KLAMATH FALLS  MOSUNNY   63  36  36 VRB5      29.97S
6HR MIN TEMP:  41; 6HR MAX TEMP:  65;

LAKEVIEW       PTSUNNY   66  36  32 SW17G23   29.98S
HERMISTON      PTSUNNY   66  47  50 SW13      29.88S
6HR MIN TEMP:  62; 6HR MAX TEMP:  66; 6HR PCP: TRACE;

PENDLETON      LGT RAIN  59  49  69 CALM      29.91R
6HR MIN TEMP:  58; 6HR MAX TEMP:  61; 6HR PCP:  0.01;

JOHN DAY       CLOUDY    63  42  45 NW9       29.92S
MEACHAM        CLOUDY    54  46  74 VRB5      29.95R
6HR MIN TEMP:  45; 6HR MAX TEMP:  55;

LA GRANDE      CLOUDY    64  39  39 NW10      29.89S
6HR MIN TEMP:  57; 6HR MAX TEMP:  64;

BAKER CITY     CLOUDY    64  45  49 CALM      29.90F
6HR MIN TEMP:  49; 6HR MAX TEMP:  64;

BURNS          CLOUDY    66  33  29 SW6       29.96R
6HR MIN TEMP:  48; 6HR MAX TEMP:  67;

ROME             N/A     79  34  19 S16G25    29.91F
6HR MIN TEMP:  62; 6HR MAX TEMP:  79;

ONTARIO        MOSUNNY   75  45  34 SE3       29.86F
6HR MIN TEMP:  55; 6HR MAX TEMP:  75;

$$



USA.gov is the U.S. government's official web portal to all federal, state and local government web resources and services.